SL-8 DEB

Satellite information

Favourite Embed

Satellite Type and Status

DEBRISIN ORBIT

Key statistics

Satellite SL-8 DEB at a glance.

Uptime

13403

Days in orbit

Revolutions

≈ 13.9

Per day

Orbit

LEO

Low Earth Orbit

Inclination

82.9

Latest

Satellite identification and parameters

Extended collection of information and parameters for SL-8 DEB.

Object identification

Identified? True

Debris? True

Object name: SL-8 DEB

International designator: 1989-028C

Object number (NORAD): 43335

Object ID (CCSDS): 43335

Country: COMMONWEALTH OF INDEPENDENT STATES (CIS)

Current information (Y/N): Y

RCS size: SMALL

Orbital parameters

Period: 103.935 minutes

Inclination: 82.9378 deg

SMA: 7322.668 km

Apoapsis: 978.524 km

Periapsis: 910.542 km

RAAN: 262.694 deg

Eccentricy: 0.00464188

Argument of periapsis: 23.4225 deg

Mean anomaly: 336.9037 deg

Mean motion: 13.85475043 rev/day

Mean motion (dot): 0.00002324 rev/day2

B* drag term: 0.0020094894 1/REarth

Two-line elements (TLE)

Creation date: Dec. 12, 2025, 10:14 a.m.

Reference frame: TEME

Reference center: EARTH

Epoch: Dec. 12, 2025, 5 a.m. UTC

TLE line 0: 0 SL-8 DEB

TLE line 1: 1 43335U 89028C 25346.20840371 .00002324 00000-0 20095-2 0 9999

TLE line 2: 2 43335 82.9378 262.6940 0046419 23.4225 336.9037 13.85475043607282

Live tracking on map

Real-time ground track for satellite SL-8 DEB.

In-orbit conjunctions

A list of the most updated potential collisions computed for object SL-8 DEB.

Target Orbit TCA Probability of collision Miss distance Type
SL-24 DEB SSO 2025-12-12 19:16:13 0.0003371877 23.0 (m) DEBRIS
FENGYUN 1C DEB SSO 2024-12-03 07:01:19 0.0007590187 53.0 (m) DEBRIS

Associated space launch

Navigation satellite providing location information for the Tsiklon-B navigation system

SL-8 DEB was lifted into orbit during the mission ‘Kosmos-3M | Parus 65’, on board a Kosmos-3M space rocket.

The launch took place on April 4, 1989, 6:36 p.m. from 132/2.

For more information about the launch, click the button.

Launch to space Kosmos-3M | Parus 65
Kosmos-3M | Parus 65

Agency: N/A

Status: Launch Successful

Launch date: April 4, 1989, 6:36 p.m. UTC

Rocket: Kosmos-3M

Launch pad: 132/2

Location: Plesetsk Cosmodrome, Russian Federation

...

Latest news about this satellite

There are no fresh news available about this satellite. Check back as we update our databases every day.


Newsletter sign-up

Weekly statistics, charts and insights to help you stay on top of the space industry.